Weather History for Jackson, MN

Change the Weather History Date:

Sunday, February 24, 2013

  Actual Average Record
Temperature  
Mean Temperature 12 °F -  
Max Temperature 24 °F 30 °F 55 °F (1998)
Min Temperature 1 °F 16 °F -5 °F (2003)
Degree Days  
Heating Degree Days 52    
Moisture  
Dew Point 12 °F    
Average Humidity 85    
Maximum Humidity 93    
Minimum Humidity 78    
Precipitation  
Precipitation 0.00 in - - ()
Sea Level Pressure  
Sea Level Pressure 29.98 in    
Wind  
Wind Speed 2 mph (ENE)    
Max Wind Speed 7 mph    
Max Gust Speed -    
Visibility 4 miles    
Events Fog , Snow    
Averages and records for this station are not official NWS values.
T = Trace of Precipitation, MM = Missing Value Source: NWS Daily Summary

Daily Weather History Graph

Daily Weather History Graph

Search for Another Location

Airport:

Trip Planner

Search our weather history database for the weather conditions in past years. The results will help you decide how hot, cold, wet, or windy it might be!

Date:

Astronomy

Feb. 24, 2013 Rise Set
Actual Time 7:04 AM CST 6:02 PM CST
Civil Twilight 6:35 AM CST 6:31 PM CST
Nautical Twilight 6:02 AM CST 7:04 PM CST
Astronomical Twilight 5:28 AM CST 7:38 PM CST
Moon 5:14 PM CST (2/24) 6:02 AM CST (2/24)
Length of Visible Light 11h 56m
Length of Day
10h 58m
Waxing Gibbous, 99% of the Moon is Illuminated
Feb 24
Waxing Gibbous
Feb 25
Full
Mar 4
Last Quarter
Mar 11
New
Mar 19
First Quarter

Hourly Weather History & Observations

Time (CST) Temp. Windchill Dew Point Humidity Pressure Visibility Wind Dir Wind Speed Gust Speed Precip Events Conditions
12:13 AM 5.0 °F -2.1 °F 1.4 °F 85% 29.90 in 0.2 mi ENE 3.5 mph - N/A   Haze
12:32 AM 1.4 °F -6.2 °F -4.0 °F 78% 29.90 in 0.2 mi ENE 3.5 mph - N/A Fog Light Freezing Fog
12:53 AM 1.4 °F - -4.0 °F 78% 29.91 in 0.2 mi Calm Calm - N/A   Haze
1:13 AM 3.2 °F - -2.2 °F 78% 29.91 in 0.2 mi Calm Calm - N/A   Haze
1:32 AM 1.4 °F - -4.0 °F 78% 29.91 in 0.2 mi Calm Calm - N/A   Haze
1:53 AM 1.4 °F - -2.2 °F 85% 29.91 in 0.2 mi Calm Calm - N/A Fog Light Freezing Fog
2:13 AM 3.2 °F - -0.4 °F 85% 29.91 in 0.2 mi Calm Calm - N/A   Haze
2:32 AM 3.2 °F - -2.2 °F 78% 29.91 in 0.2 mi Calm Calm - N/A   Haze
2:53 AM 3.2 °F - -2.2 °F 78% 29.91 in 0.2 mi Calm Calm - N/A   Haze
3:13 AM 3.2 °F - -2.2 °F 78% 29.91 in 0.2 mi Calm Calm - N/A   Haze
3:32 AM 3.2 °F - -0.4 °F 85% 29.91 in 0.2 mi Calm Calm - N/A   Haze
3:53 AM 3.2 °F - -2.2 °F 78% 29.91 in 0.2 mi Calm Calm - N/A   Haze
4:12 AM 5.0 °F - 1.4 °F 85% 29.92 in 0.2 mi Calm Calm - N/A Snow Light Snow
4:33 AM 5.0 °F - -0.4 °F 78% 29.92 in 1.2 mi Calm Calm - N/A Snow Light Snow
4:52 AM 5.0 °F - 1.4 °F 85% 29.92 in 0.2 mi Calm Calm - N/A Fog Light Freezing Fog
5:13 AM 5.0 °F - 1.4 °F 85% 29.94 in 0.2 mi Calm Calm - N/A   Haze
5:32 AM 5.0 °F - 1.4 °F 85% 29.94 in 0.2 mi Calm Calm - N/A Fog Light Freezing Fog
5:53 AM 6.8 °F - 3.2 °F 85% 29.94 in 1.0 mi Calm Calm - N/A   Mist
6:13 AM 8.6 °F - 3.2 °F 79% 29.94 in 5.0 mi Calm Calm - N/A   Haze
6:32 AM 8.6 °F - 3.2 °F 79% 29.94 in 7.0 mi Calm Calm - N/A   Clear
6:53 AM 8.6 °F - 3.2 °F 79% 29.95 in 7.0 mi Calm Calm - N/A   Clear
7:12 AM 10.4 °F - 5.0 °F 79% 29.95 in 4.0 mi Calm Calm - N/A   Clear
7:32 AM 10.4 °F - 6.8 °F 85% 29.96 in 5.0 mi Calm Calm - N/A   Clear
7:53 AM 12.2 °F - 8.6 °F 85% 29.96 in 4.0 mi Calm Calm - N/A   Scattered Clouds
8:12 AM 12.2 °F - 8.6 °F 85% 29.97 in 4.0 mi Calm Calm - N/A   Scattered Clouds
8:32 AM 12.2 °F - 8.6 °F 85% 29.98 in 5.0 mi Calm Calm - N/A   Mostly Cloudy
8:53 AM 14.0 °F - 10.4 °F 86% 29.98 in 4.0 mi Calm Calm - N/A   Overcast
9:12 AM 14.0 °F - 10.4 °F 86% 29.98 in 4.0 mi Calm Calm - N/A   Mostly Cloudy
9:32 AM 14.0 °F - 10.4 °F 86% 29.98 in 5.0 mi Calm Calm - N/A   Mostly Cloudy
9:53 AM 14.0 °F - 10.4 °F 86% 29.99 in 4.0 mi Calm Calm - N/A   Mostly Cloudy
10:12 AM 15.8 °F - 12.2 °F 86% 29.99 in 4.0 mi Calm Calm - N/A   Scattered Clouds
10:33 AM 17.6 °F - 14.0 °F 86% 30.00 in 5.0 mi Calm Calm - N/A   Scattered Clouds
10:53 AM 17.6 °F - 14.0 °F 86% 30.00 in 5.0 mi Calm Calm - N/A   Scattered Clouds
11:12 AM 19.4 °F - 15.8 °F 86% 30.01 in 4.0 mi Calm Calm - N/A   Mostly Cloudy
11:33 AM 19.4 °F 14.3 °F 17.6 °F 93% 30.02 in 5.0 mi NE 3.5 mph - N/A   Overcast
11:53 AM 19.4 °F 12.8 °F 15.8 °F 86% 30.02 in 5.0 mi ENE 4.6 mph - N/A   Scattered Clouds
12:12 PM 19.4 °F 11.5 °F 17.6 °F 93% 30.02 in 4.0 mi East 5.8 mph - N/A   Scattered Clouds
12:33 PM 19.4 °F 11.5 °F 17.6 °F 93% 30.01 in 4.0 mi East 5.8 mph - N/A   Mostly Cloudy
12:53 PM 21.2 °F 14.9 °F 17.6 °F 86% 30.01 in 5.0 mi East 4.6 mph - N/A   Overcast
1:12 PM 21.2 °F 13.6 °F 17.6 °F 86% 30.00 in 5.0 mi NE 5.8 mph - N/A   Overcast
1:33 PM 21.2 °F 14.9 °F 17.6 °F 86% 30.01 in 4.0 mi ENE 4.6 mph - N/A   Overcast
1:52 PM 21.2 °F 13.6 °F 19.4 °F 93% 30.00 in 5.0 mi ENE 5.8 mph - N/A   Overcast
2:13 PM 21.2 °F 13.6 °F 19.4 °F 93% 30.00 in 5.0 mi East 5.8 mph - N/A   Overcast
2:32 PM 23.0 °F 15.8 °F 19.4 °F 86% 29.99 in 5.0 mi ENE 5.8 mph - N/A   Overcast
2:53 PM 23.0 °F 15.8 °F 19.4 °F 86% 29.99 in 5.0 mi East 5.8 mph - N/A   Overcast
3:13 PM 23.0 °F 14.7 °F 19.4 °F 86% 29.98 in 5.0 mi East 6.9 mph - N/A   Overcast
3:32 PM 23.0 °F 14.7 °F 19.4 °F 86% 29.99 in 5.0 mi East 6.9 mph - N/A   Overcast
3:53 PM 23.0 °F 15.8 °F 19.4 °F 86% 29.99 in 5.0 mi East 5.8 mph - N/A   Overcast
4:13 PM 23.0 °F 18.4 °F 19.4 °F 86% 30.00 in 5.0 mi East 3.5 mph - N/A   Overcast
4:32 PM 23.0 °F 17.0 °F 19.4 °F 86% 30.00 in 5.0 mi East 4.6 mph - N/A   Overcast
4:52 PM 23.0 °F 17.0 °F 19.4 °F 86% 30.00 in 5.0 mi East 4.6 mph - N/A   Haze
5:13 PM 23.0 °F 17.0 °F 19.4 °F 86% 30.00 in 5.0 mi East 4.6 mph - N/A   Haze
5:32 PM 23.0 °F 18.4 °F 19.4 °F 86% 30.01 in 5.0 mi East 3.5 mph - N/A   Overcast
5:52 PM 23.0 °F - 19.4 °F 86% 30.01 in 5.0 mi Calm Calm - N/A   Overcast
6:13 PM 23.0 °F 18.4 °F 19.4 °F 86% 30.02 in 4.0 mi ENE 3.5 mph - N/A   Overcast
6:32 PM 23.0 °F 18.4 °F 19.4 °F 86% 30.02 in 5.0 mi ENE 3.5 mph - N/A   Overcast
6:52 PM 23.0 °F 18.4 °F 19.4 °F 86% 30.02 in 5.0 mi East 3.5 mph - N/A   Overcast
7:13 PM 23.0 °F - 19.4 °F 86% 30.03 in 5.0 mi Calm Calm - N/A   Overcast
7:32 PM 24.8 °F - 21.2 °F 86% 30.03 in 5.0 mi Calm Calm - N/A   Overcast
7:52 PM 24.8 °F - 21.2 °F 86% 30.04 in 5.0 mi Calm Calm - N/A   Overcast
8:13 PM 24.8 °F 20.5 °F 21.2 °F 86% 30.04 in 5.0 mi ESE 3.5 mph - N/A   Overcast
8:32 PM 24.8 °F - 21.2 °F 86% 30.04 in 5.0 mi Calm Calm - N/A   Overcast
8:52 PM 24.8 °F - 21.2 °F 86% 30.04 in 5.0 mi Calm Calm - N/A   Overcast
9:13 PM 24.8 °F - 21.2 °F 86% 30.04 in 5.0 mi Calm Calm - N/A   Overcast
9:32 PM 24.8 °F - 21.2 °F 86% 30.05 in 5.0 mi Calm Calm - N/A   Overcast
9:53 PM 24.8 °F - 21.2 °F 86% 30.06 in 5.0 mi Calm Calm - N/A   Overcast
10:12 PM 24.8 °F - 21.2 °F 86% 30.06 in 5.0 mi Calm Calm - N/A   Overcast
10:32 PM 24.8 °F - 21.2 °F 86% 30.06 in 5.0 mi Calm Calm - N/A   Overcast
10:53 PM 24.8 °F - 21.2 °F 86% 30.06 in 5.0 mi Calm Calm - N/A   Overcast
11:12 PM 24.8 °F - 21.2 °F 86% 30.06 in 5.0 mi Calm Calm - N/A   Overcast
11:32 PM 24.8 °F - 21.2 °F 86% 30.06 in 5.0 mi Calm Calm - N/A   Overcast
11:53 PM 24.8 °F 20.5 °F 21.2 °F 86% 30.06 in 5.0 mi West 3.5 mph - N/A   Overcast